Torna al catalogo

STARLINK-3938

AttivoComunicazioniVLEO
NORAD 52566·PAYLOAD·🇺🇸 United States

Lanciato May 13, 2022 da Vandenberg Space Force Base

Loading…

Prossimi Passaggi (prossime 24 ore)

TLE

AggiornatoSource: CelesTrak SupGP

Epoca: Sep 15, 2026, 01:10 UTC

1 52566C 22051AK  26258.04909722  .00021067  00000+0  60287-3 0  2589
2 52566  53.1583 351.8600 0001125  90.8916  75.7412 15.35382209    11

Traccia STARLINK-3938 in tempo reale con AllMySat

Download on the App Store